This is the latest recevied weather packets stored in our database for station/object KB2AHZ. If no packets are shown the sender has not sent any weather packets the latest 10 day(s).
| Time | Temp. | Humidity | Pressure | Rain* | Wind** | Luminosity | Snow |
|---|---|---|---|---|---|---|---|
| 1777662304 | 20° C | 43% | 1014.2 hPa | 0 mm | - | 578 W/m² | - |
| 1777662000 | 19.44° C | 44% | 1014.3 hPa | 0 mm | - | 1123 W/m² | - |
| 1777661696 | 19.44° C | 44% | 1014.7 hPa | 0 mm | - | 715 W/m² | - |
| 1777661392 | 18.89° C | 46% | 1014.6 hPa | 0 mm | - | 666 W/m² | - |
| 1777661088 | 18.33° C | 44% | 1014.6 hPa | 0 mm | - | 733 W/m² | - |
| 1777660783 | 18.33° C | 45% | 1014.9 hPa | 0 mm | - | 575 W/m² | - |
| 1777660480 | 17.78° C | 43% | 1014.9 hPa | 0 mm | - | 567 W/m² | - |
| 1777660177 | 18.33° C | 42% | 1014.7 hPa | 0 mm | - | 604 W/m² | - |
| 1777659874 | 17.78° C | 43% | 1014.7 hPa | 0 mm | - | 674 W/m² | - |
| 1777659570 | 18.33° C | 41% | 1015 hPa | 0 mm | - | 636 W/m² | - |
| 1777659268 | 18.33° C | 41% | 1015.1 hPa | 0 mm | - | 524 W/m² | - |
| 1777658964 | 18.33° C | 43% | 1015 hPa | 0 mm | - | 549 W/m² | - |
| 1777658661 | 18.33° C | 42% | 1015.3 hPa | 0 mm | - | 708 W/m² | - |
| 1777658358 | 18.89° C | 40% | 1015.1 hPa | 0 mm | - | 801 W/m² | - |
| 1777658055 | 18.33° C | 44% | 1015.1 hPa | 0 mm | - | 898 W/m² | - |
| 1777657751 | 18.33° C | 46% | 1015.2 hPa | 0 mm | - | 639 W/m² | - |
| 1777657450 | 18.33° C | 42% | 1015.3 hPa | 0 mm | - | 1003 W/m² | - |
| 1777657146 | 18.89° C | 45% | 1015.1 hPa | 0 mm | - | 948 W/m² | - |
| 1777656844 | 17.78° C | 45% | 1015.1 hPa | 0 mm | - | 950 W/m² | - |
| 1777656539 | 18.33° C | 47% | 1015.4 hPa | 0 mm | - | 976 W/m² | - |
| 1777656235 | 18.33° C | 46% | 1015.4 hPa | 0 mm | - | 683 W/m² | - |
| 1777655930 | 18.33° C | 49% | 1015.3 hPa | 0 mm | - | 966 W/m² | - |
| 1777655627 | 17.22° C | 52% | 1015.5 hPa | 0 mm | - | 759 W/m² | - |
| 1777655324 | 17.78° C | 48% | 1015.4 hPa | 0 mm | - | 757 W/m² | - |
| 1777655021 | 17.78° C | 47% | 1015.7 hPa | 0 mm | - | 806 W/m² | - |
* Rain latest hour (hover to see other rain measurements)
** Current wind speed in m/s (hover to see current wind gust speed)